Location: Bezawada
(16.5136°N, 80.6297°E)
Time: 13:22:48
(UTC+00:00)

Daily predictions for brighter satellites

Satellite Brightness Start Highest point End
(mag) Time Altitude Azimuth Time Altitude Azimuth Time Altitude Azimuth
ADEOS Rocket 3.5 12:57:11 10° NNE 13:04:49 70° ESE 13:11:50 10° S
Meteor 1-20 Rocket 4.1 13:00:13 10° S 13:05:38 76° E 13:11:07 10° N
Atlas 2A Centaur Rocket 3.5 13:00:23 10° WNW 13:06:26 24° N 13:08:59 10° NE
USA 267 4.5 13:04:16 10° ENE 13:09:03 22° SE 13:13:49 10° S
BREEZE-M DEB (TANK) 4.1 12:58:46 10° NW 13:09:37 39° NNE 13:13:09 10° ESE
Cosmos 2034 Rocket 4.5 13:05:56 10° SSE 13:11:29 36° E 13:17:00 10° NNE
SL-4 R/B 3.7 13:09:56 10° NW 13:14:14 40° SW 13:18:16 10° SSE
H-2A R/B 3.9 13:21:14 11° ENE 13:21:14 11° ENE 13:22:28 10° NE
NOSS 2-2 (C) 3.1 13:18:52 10° SSW 13:22:55 79° ESE 13:26:29 10° NNE
Cosmos 2285 Rocket 4.2 13:16:58 10° N 13:23:10 51° ENE 13:29:22 10° SSE
NOSS 2-2 (E) 3.4 13:19:31 10° SSW 13:23:28 73° WNW 13:27:02 10° NNE
Yuri Rocket 3.8 13:21:38 10° WNW 13:28:07 70° SSW 13:32:51 10° SE
Delta 198 4.2 13:28:08 10° WNW 13:34:33 83° NNE 13:38:45 18° ESE
COSMOS 2455 3.7 13:35:54 10° SSE 13:40:50 27° ESE 13:43:18 21° ENE
Meteor 1-14 Rocket 4.3 13:35:54 10° S 13:41:25 77° W 13:46:56 10° N
Cosmos 1814 Rocket 4.0 13:47:03 10° SSW 13:52:10 78° WNW 13:57:17 10° N
NOSS 3-4 (A) 4.1 13:48:42 10° S 13:53:48 29° ESE 13:54:41 28° E
NOSS 3-4 (C) 4.1 13:48:47 10° S 13:53:54 29° ESE 13:54:43 28° E
HJ-1C 3.2 13:54:20 10° SSE 13:57:36 66° ENE 14:00:52 10° N
Cosmos 841 Rocket 4.1 13:53:37 10° SSW 13:58:38 56° WNW 14:03:40 10° N
Meteor 1-11 Rocket 4.1 13:53:37 10° SSE 13:58:52 40° E 14:02:29 18° NE
Intelsat 5-2 Rocket 2.4 14:02:26 10° WNW 14:05:01 88° S 14:05:28 64° ESE
CSL-04 Rocket 4.4 13:59:40 10° S 14:05:05 55° WSW 14:10:28 10° NNW
GPS 2-12 Rocket1 2.9 14:00:54 10° W 14:05:22 84° NNW 14:06:21 54° ENE
Okean 1-7 2.9 14:01:14 10° N 14:05:36 87° E 14:09:58 10° S
COSMOS 2487 2.2 14:03:38 10° NNW 14:07:04 88° WSW 14:07:17 78° S
Okean 1 3.1 14:04:04 10° N 14:08:01 81° E 14:11:58 10° S
Cosmos 724 4.4 14:02:27 10° NNW 14:08:15 74° WSW 14:14:09 10° SSE
STARLINK-60 3.7 14:06:38 10° NW 14:09:50 52° SW 14:10:14 48° SSW
Palapa 6 Rocket 2.9 14:06:08 10° WSW 14:10:00 60° SSE 14:10:17 58° SE
Meteor 1-19 Rocket 4.1 14:05:25 10° N 14:10:56 60° E 14:16:20 10° SSE
Cosmos 1898 Rocket 3.5 14:07:44 10° N 14:12:46 52° ENE 14:12:50 52° ENE
CZ-2C R/B 4.3 14:15:31 29° NNE 14:15:31 29° NNE 14:18:42 10° N
Centaur AC-112 3.3 14:12:47 10° WNW 14:16:13 89° SSW 14:20:08 34° ESE
Cosmos 1500 3.2 14:14:23 10° S 14:18:00 75° WSW 14:18:00 75° WSW
Cosmos 405 3.9 14:15:50 10° NNW 14:19:16 48° W 14:22:40 10° S
Cosmos 1733 Rocket 3.6 14:17:38 10° S 14:20:46 46° S 14:20:46 46° S
SJ 16-02 2.7 14:19:22 10° N 14:21:27 27° N 14:21:27 27° N
Ariane Rocket 2.9 14:18:39 10° SSE 14:23:45 90° WSW 14:28:51 10° NNW
ATLAS 2AS CENTAUR R/B 2.9 14:18:06 10° SSW 14:25:42 81° ESE 14:30:54 24° NNE
IRS-1A Rocket 4.2 14:28:30 10° S 14:34:02 81° WSW 14:39:33 10° NNW
CZ-3A R/B 2.8 14:12:15 10° WSW 14:36:45 87° NNW 14:38:08 61° ENE
Palapa B4 Rocket 4.3 14:25:45 10° WSW 14:36:56 81° SSE 14:38:24 62° E
Hubble Space Telescope 3.1 14:38:57 10° NW 14:40:18 18° NNW 14:40:18 18° NNW
Nadezhda 4 Rocket 4.3 14:39:29 10° N 14:45:44 67° W 14:52:00 10° S
Cosmos 990 Rocket 4.5 14:42:27 10° NNW 14:46:55 56° WNW 14:46:55 56° WNW
USA 267 3.6 14:50:00 43° N 14:51:59 61° NW 14:58:23 10° SW
FALCON 9 R/B 4.3 14:44:07 10° W 14:52:06 74° NNW 16:14:13 10° ENE
H-2A R/B 3.4 15:01:50 35° NW 15:01:50 35° NW 15:05:09 10° NNW
Cosmos 1697 Rocket 4.1 14:56:14 10° SSW 14:58:56 29° SSW 14:58:56 29° SSW
Aurora 2 Rocket 4.2 22:30:53 53° NE 22:30:53 53° NE 22:36:13 10° E
Lacrosse 5 3.9 22:43:10 19° SSE 22:43:10 19° SSE 22:44:35 10° SSE
CZ-3 R/B 4.1 22:40:25 43° W 22:51:17 59° SW 23:02:17 10° SE
Cosmos 2369 Rocket 3.3 22:57:34 33° S 22:57:34 33° S 23:00:33 10° S
H-2A R/B 4.3 22:57:21 10° NNE 22:59:17 25° NNE 22:59:17 25° NNE
Atlas Centaur 2 4.0 23:01:27 27° NNW 23:02:56 28° N 23:09:49 10° NE
ATLAS 5 CENTAUR R/B 3.9 23:01:24 10° SSE 23:04:23 20° ESE 23:07:22 10° ENE
Cosmos 1818 4.2 23:11:58 41° NNW 23:11:58 41° NNW 23:15:41 10° NNE
Milstar 3 4.5 23:00:31 32° WNW 23:11:50 79° NNE 23:22:23 10° ESE
ALOS 3.4 23:10:04 10° NNE 23:14:29 43° E 23:18:54 10° S
PSLV R/B 4.4 23:10:59 10° SSE 23:14:56 57° ENE 23:17:14 24° N
Cosmos 1459 Rocket 4.0 23:10:31 10° N 23:16:50 83° E 23:23:12 10° S
Cosmos 1862 4.3 23:19:27 10° N 23:23:17 47° E 23:27:07 10° SSE
Okean O Rocket 4.4 23:22:37 10° NE 23:25:42 19° E 23:28:47 10° SE
Cosmos 2100 Rocket 3.8 23:22:39 10° N 23:28:44 68° W 23:34:48 10° S
STARLINK-1224 4.4 23:30:52 28° NE 23:30:52 28° NE 23:32:19 10° NE
Cosmos 2263 4.3 23:29:16 46° W 23:29:52 48° WSW 23:35:12 10° S
STARLINK-1224 4.5 23:31:19 25° NE 23:31:19 25° NE 23:32:37 10° NE
STARLINK-1225 4.3 23:31:50 29° NE 23:31:50 29° NE 23:33:20 10° NE
STARLINK-1225 4.4 23:32:17 26° NE 23:32:17 26° NE 23:33:38 10° NE
STARLINK-1230 4.2 23:32:52 30° NE 23:32:52 30° NE 23:34:25 10° NE
STARLINK-1230 4.3 23:33:19 27° NE 23:33:19 27° NE 23:34:42 10° NE
STARLINK-1243 4.1 23:33:50 31° NE 23:33:50 31° NE 23:35:25 10° NE
STARLINK-1243 4.2 23:34:16 28° NE 23:34:16 28° NE 23:35:43 10° NE
STARLINK-1236 4.0 23:34:54 32° NE 23:34:54 32° NE 23:36:32 10° NE
STARLINK-1236 4.1 23:35:20 29° NE 23:35:20 29° NE 23:36:50 10° NE
Cosmos 2123 Rocket 4.0 23:28:22 10° SSW 23:34:34 58° W 23:40:43 10° N
PSLV R/B 3.9 23:30:41 10° NNE 23:34:35 76° ESE 23:38:34 10° S
STARLINK-1269 3.8 23:36:57 34° NNE 23:36:57 34° NNE 23:38:40 10° NE
Cosmos 1238 Rocket 2.6 23:31:44 10° N 23:36:04 86° W 23:39:37 10° S
STARLINK-1269 4.0 23:37:23 31° NNE 23:37:23 31° NNE 23:38:58 10° NNE
STARLINK-1200 3.8 23:37:58 35° NNE 23:37:58 35° NNE 23:39:44 10° NNE
STARLINK-1200 3.9 23:38:25 32° NNE 23:38:25 32° NNE 23:40:02 10° NNE
Delta 7925 Rocket 3.7 23:36:24 38° WSW 23:37:32 45° SSW 23:41:59 10° SE
STARLINK-1192 3.7 23:39:03 37° NNE 23:39:03 37° NNE 23:40:52 10° NNE
STARLINK-1192 3.8 23:39:30 33° NNE 23:39:30 33° NNE 23:41:10 10° NNE
Cosmos 1833 Rocket 3.9 23:33:38 10° S 23:38:56 44° ESE 23:44:15 10° NNE
Cosmos 1151 Rocket 2.8 23:34:44 10° S 23:39:02 73° W 23:43:20 10° N
STARLINK-1244 3.6 23:40:02 38° NNE 23:40:02 38° NNE 23:41:54 10° NNE
STARLINK-1244 3.7 23:40:29 34° NNE 23:40:29 34° NNE 23:42:11 10° NNE
STARLINK-1138 3.6 23:40:37 37° NNE 23:40:37 37° NNE 23:42:27 10° NNE
STARLINK-1138 3.7 23:41:33 35° NNE 23:41:33 35° NNE 23:43:18 10° NNE
STARLINK-1143 3.5 23:41:44 38° NNE 23:41:44 38° NNE 23:43:37 10° NNE
STARLINK-1143 3.6 23:42:34 36° NNE 23:42:34 36° NNE 23:44:22 10° NNE
Sich 1 2.9 23:38:28 10° N 23:42:49 76° W 23:47:11 10° S
Cosmos 2082 Rocket 4.4 23:39:12 10° SSE 23:43:52 27° ESE 23:48:30 10° NE
COSMOS 2406 3.1 23:38:52 10° SSW 23:44:31 75° WNW 23:50:10 10° NNE
GPS 2-17 Rocket1 3.4 23:43:20 29° SW 23:45:31 62° SSE 23:50:15 10° E
Cosmos 1725 Rocket 4.2 23:41:13 10° N 23:47:31 78° E 23:53:50 10° S
Delta 168 3.9 23:44:56 24° WNW 23:49:46 80° NNE 23:54:57 10° ESE
CZ-3B R/B 0.2 23:49:45 77° W 23:49:53 84° NNW 23:53:47 10° ENE
